Regional Weather Roundup
Issued by NWS Binghamton, NY

Home | Current Version | Previous Version | Text Only | Print | Product List | Glossary On
Versions: 1 2 3 4 5 6 7 8 9 10 11 12 13 14 15 16 17 18 19 20 21 22 23 24 25 26 27 28 29 30 31 32 33 34 35 36 37 38 39 40 41 42 43 44 45 46 47 48 49 50
000
ASUS41 KBGM 310410
RWRBGM
RWRBGM
BINGHAMTON REGIONAL WEATHER ROUNDUP
NATIONAL WEATHER SERVICE BINGHAMTON NY
1100 PM EST FRI JAN 30 2015

Note: "fair" indicates few or no clouds below 12,000 feet with no
significant weather and/or obstructions to visibility.

* = Station(s) that does not report precipitation, such as rain,
snow, etc, also no thunder or fog.

!NYZ009-015>018-022>025-036-037-044>046-055>057-062-310500
...CENTRAL NEW YORK...

CITY           SKY/WX    TMP DP  RH WIND       PRES   REMARKS
BINGHAMTON     LGT SNOW   8   5  87 NW15G25   30.06R FOG     WCI  -9
CORTLAND       LGT SNOW  12   9  85 W10G18    30.15S WCI  -1
DANSVILLE      CLOUDY    10   2  69 NW9       30.30S WCI  -3
ELMIRA         CLOUDY    10   1  67 W10       30.23S WCI  -4
ITHACA         NOT AVBL
HAMILTON       CLOUDY     7   0  72 N10       30.13  WCI  -8
MONTICELLO     MOCLDY    10   5  79 NW22G31   29.96S WCI  -9
NORWICH        CLOUDY     9   3  78 N8        30.12S WCI  -4
ONEONTA        MOCLDY     3  -2  78 N10G17    30.02R WCI -12
PENN YAN       LGT SNOW  10   1  67 NW13G30   30.24R WCI  -5
ROME           CLEAR      3  -6  66 NW12      30.22S WCI -13
SIDNEY         CLOUDY    14   9  79 NW16      30.10S WCI  -2
SYRACUSE       LGT SNOW   7   5  91 N10       30.23R FOG     WCI  -8
$$

!PAZ038>040-043-044-047-048-072-310500
...NORTHEAST PENNSYLVANIA...

CITY           SKY/WX    TMP DP  RH WIND       PRES   REMARKS
HAZLETON       CLOUDY    10   1  67 MISG      30.09S
SCRANTON       FLURRIES  13   1  59 NW14G25   30.13S WCI  -2
TOWANDA*       MOCLDY    10  -2  56 NW10G22   30.22F WCI  -3
$$
&&
KEY
WCI = WIND CHILL INDEX
VSB = VISIBILITY
HX  = HEAT INDEX
$$


USA.gov is the U.S. government's official web portal to all federal, state and local government web resources and services.